M I D A S
Marine Information and Data Acquisition System
Tripno 408 of the Zeeleeuw from 2002-11-29 08:36:27 to 2002-11-29 12:55:31
Back to CruiseResearch ActivitiesStationsMapUnderway DataData graphs

EquipmentUnitsComment
TimeDGPSUTC
LatitudeDGPSDM.mWGS84
LongitudeDGPSDM.mWGS84
HeadingGyrodeg 
SOGDGPSknotsSpeed over ground
COGDGPSdegCourse over ground
DepthEcho soundermeters200 kHz
Missing or incorrect values are displayed as -999
Navigation data collected by the RV Zeeleeuw from 2002-11-29 08:36:27 to 2002-11-29 12:55:31
                                                                                    Next 1000 lines
Time Latitude Longitude Heading SOG COG Depth
2002-11-29 08:36:36 51°13.591 2°56.119 116.7 1.5 295 -999
2002-11-29 08:36:40 51°13.592 2°56.116 116.8 1.7 296.7 -999
2002-11-29 08:36:46 51°13.594 2°56.112 116.8 1.8 296.7 -999
2002-11-29 08:36:51 51°13.595 2°56.108 116.7 2 296.2 -999
2002-11-29 08:36:56 51°13.596 2°56.103 116.3 2.1 295.7 -999
2002-11-29 08:37:00 51°13.597 2°56.1 116 2.3 295.8 -999
2002-11-29 08:37:06 51°13.599 2°56.094 115.5 2.4 295.1 -999
2002-11-29 08:37:11 51°13.6 2°56.089 114.8 2.5 294.8 -999
2002-11-29 08:37:16 51°13.602 2°56.083 114.2 2.5 293.4 -999
2002-11-29 08:37:21 51°13.603 2°56.078 113.3 2.5 292.7 -999
2002-11-29 08:37:26 51°13.604 2°56.073 112.3 2.5 291.2 -999
2002-11-29 08:37:31 51°13.605 2°56.069 111.5 2.4 290.5 -999
2002-11-29 08:37:36 51°13.606 2°56.064 110.8 2.2 289.9 -999
2002-11-29 08:37:40 51°13.607 2°56.061 110.3 2 288.4 10.5
2002-11-29 08:37:46 51°13.608 2°56.056 110.2 1.8 288 11.1
2002-11-29 08:37:51 51°13.608 2°56.053 110 1.7 288.7 10.9
2002-11-29 08:37:55 51°13.609 2°56.051 110.3 1.4 286.3 10.9
2002-11-29 08:38:00 51°13.609 2°56.049 111.2 1.2 284.8 11.1
2002-11-29 08:38:05 51°13.61 2°56.047 112.7 0.9 287.3 11.2
2002-11-29 08:38:10 51°13.61 2°56.046 114.3 0.8 288.3 11
2002-11-29 08:38:16 51°13.611 2°56.044 115.5 0.8 286.7 11
2002-11-29 08:38:20 51°13.611 2°56.042 116.7 0.9 292.4 11.5
2002-11-29 08:38:24 51°13.612 2°56.039 117.7 1.1 290.2 11.6
2002-11-29 08:38:30 51°13.613 2°56.036 118.5 1.5 292.6 11.7
2002-11-29 08:38:35 51°13.614 2°56.031 119.5 1.7 292.5 11.9
2002-11-29 08:38:40 51°13.615 2°56.027 120.7 2 293.8 -999
2002-11-29 08:38:46 51°13.616 2°56.022 122 2.2 294.3 -999
2002-11-29 08:38:51 51°13.617 2°56.017 123.3 2.3 295.9 -999
2002-11-29 08:38:56 51°13.619 2°56.013 124.5 2.4 296.8 -999
2002-11-29 08:39:00 51°13.62 2°56.008 125.7 2.6 298.3 -999
2002-11-29 08:39:07 51°13.624 2°56.001 126.7 2.7 299.7 -999
2002-11-29 08:39:11 51°13.625 2°55.996 127.5 2.9 301.5 -999
2002-11-29 08:39:16 51°13.628 2°55.991 128 3 302.5 -999
2002-11-29 08:39:21 51°13.63 2°55.985 128.5 3.1 303.4 -999
2002-11-29 08:39:27 51°13.633 2°55.978 129.2 3.2 303.8 -999
2002-11-29 08:39:31 51°13.635 2°55.973 129.5 3.3 304.8 -999
2002-11-29 08:39:36 51°13.637 2°55.967 129.8 3.4 305.2 -999
2002-11-29 08:39:41 51°13.64 2°55.961 130 3.4 305.9 -999
2002-11-29 08:39:46 51°13.643 2°55.955 130 3.4 306.1 -999
2002-11-29 08:39:51 51°13.646 2°55.948 130 3.5 306.1 -999
2002-11-29 08:39:56 51°13.649 2°55.942 130 3.6 306.1 -999
2002-11-29 08:40:01 51°13.653 2°55.935 129.8 3.8 306.6 -999
2002-11-29 08:40:07 51°13.656 2°55.927 129.3 3.7 306.8 -999
2002-11-29 08:40:11 51°13.658 2°55.922 128.7 3.7 306.6 -999
2002-11-29 08:40:16 51°13.661 2°55.916 127.5 3.6 306.5 -999
2002-11-29 08:40:20 51°13.664 2°55.91 126.5 3.6 305.9 -999
2002-11-29 08:40:26 51°13.667 2°55.902 125.3 3.7 304.6 -999
2002-11-29 08:40:31 51°13.67 2°55.895 124.3 3.7 303.4 -999
2002-11-29 08:40:36 51°13.673 2°55.887 123.3 3.7 302.4 -999
2002-11-29 08:40:40 51°13.675 2°55.882 122.3 3.7 301.2 -999
2002-11-29 08:40:46 51°13.678 2°55.873 121.3 3.7 300.2 -999
2002-11-29 08:40:51 51°13.681 2°55.865 120.3 3.8 299 -999
2002-11-29 08:40:56 51°13.683 2°55.858 119.3 3.8 298 -999
2002-11-29 08:41:01 51°13.686 2°55.85 118.5 3.8 297.3 -999
2002-11-29 08:41:06 51°13.688 2°55.843 117.5 3.8 296.7 -999
2002-11-29 08:41:11 51°13.69 2°55.835 116.7 3.8 295.9 -999
2002-11-29 08:41:16 51°13.693 2°55.827 115.8 3.9 294.7 -999
2002-11-29 08:41:20 51°13.694 2°55.82 115 3.9 293.7 -999
2002-11-29 08:41:26 51°13.697 2°55.811 114.2 3.9 292.5 -999
2002-11-29 08:41:31 51°13.699 2°55.803 113.5 3.8 291.7 -999
2002-11-29 08:41:36 51°13.7 2°55.796 113 3.7 291.1 -999
2002-11-29 08:41:41 51°13.702 2°55.788 112.7 3.6 290.6 -999
2002-11-29 08:41:46 51°13.704 2°55.782 112.3 3.4 290.6 11.8
2002-11-29 08:41:51 51°13.705 2°55.776 111.7 3.2 290.1 14.6
2002-11-29 08:41:55 51°13.706 2°55.772 111 2.8 289.5 14.7
2002-11-29 08:42:00 51°13.707 2°55.767 110 2.5 289.1 14.9
2002-11-29 08:42:04 51°13.708 2°55.764 108.3 2.2 289 15.3
2002-11-29 08:42:10 51°13.708 2°55.761 106.2 1.6 290.4 15.4
2002-11-29 08:42:15 51°13.709 2°55.759 103.3 1.2 291.2 15.5
2002-11-29 08:42:20 51°13.709 2°55.758 99.8 0.9 296.7 15.2
2002-11-29 08:42:26 51°13.71 2°55.757 96 0.4 314.5 15.2
2002-11-29 08:42:30 51°13.71 2°55.758 91.7 0.3 6 15.1
2002-11-29 08:42:35 51°13.711 2°55.759 87 0.5 46.1 15.4
2002-11-29 08:42:40 51°13.711 2°55.76 81.8 0.7 57.4 15.5
2002-11-29 08:42:44 51°13.712 2°55.762 76.2 0.9 61 15.5
2002-11-29 08:42:50 51°13.713 2°55.764 71.3 1 58.8 14.8
2002-11-29 08:42:55 51°13.714 2°55.766 68.2 1 54.9 14.7
2002-11-29 08:43:00 51°13.714 2°55.767 65.7 0.9 53.1 14.4
2002-11-29 08:43:05 51°13.715 2°55.768 63.3 0.8 51 14.3
2002-11-29 08:43:10 51°13.716 2°55.769 61.2 0.5 44.1 14.1
2002-11-29 08:43:15 51°13.716 2°55.769 59.5 0.4 36.3 13.8
2002-11-29 08:43:20 51°13.716 2°55.769 58.2 0.2 7.7 13.5
2002-11-29 08:43:26 51°13.716 2°55.767 57.5 0.2 266.5 14.1
2002-11-29 08:43:30 51°13.715 2°55.766 57.2 0.5 246.6 14.3
2002-11-29 08:43:35 51°13.714 2°55.764 57.2 0.8 243 14.3
2002-11-29 08:43:40 51°13.713 2°55.762 57.2 1 239.7 15.1
2002-11-29 08:43:45 51°13.713 2°55.76 57.2 1.2 238.2 15.2
2002-11-29 08:43:51 51°13.711 2°55.756 57 1.3 239.3 -999
2002-11-29 08:43:56 51°13.71 2°55.753 57 1.4 241 -999
2002-11-29 08:44:01 51°13.71 2°55.751 56.8 1.5 241.4 -999
2002-11-29 08:44:07 51°13.708 2°55.747 56.5 1.5 241.2 -999
2002-11-29 08:44:11 51°13.708 2°55.745 56.2 1.4 242 -999
2002-11-29 08:44:16 51°13.707 2°55.743 55.7 1.3 241.8 -999
2002-11-29 08:44:21 51°13.706 2°55.74 55 1.3 241.7 -999
2002-11-29 08:44:26 51°13.705 2°55.738 54.3 1.3 242.3 15
2002-11-29 08:44:30 51°13.704 2°55.736 53.3 1.2 241.9 14.8
2002-11-29 08:44:35 51°13.704 2°55.734 52.3 1.1 241.6 14.6
2002-11-29 08:44:40 51°13.703 2°55.733 51 1 241 15.1
2002-11-29 08:44:45 51°13.703 2°55.731 49.8 0.9 242.1 15
2002-11-29 08:44:50 51°13.702 2°55.73 48.5 0.7 240.8 15
2002-11-29 08:44:56 51°13.701 2°55.729 47.3 0.6 239.1 15
2002-11-29 08:45:00 51°13.701 2°55.728 45.8 0.5 238.8 15
2002-11-29 08:45:05 51°13.701 2°55.727 44.5 0.4 239.6 14.9
2002-11-29 08:45:10 51°13.701 2°55.727 43 0.3 237.4 14.9
2002-11-29 08:45:15 51°13.701 2°55.727 41.2 0.2 231.4 15
2002-11-29 08:45:20 51°13.701 2°55.727 39.3 0.1 254.3 15
2002-11-29 08:45:26 51°13.701 2°55.727 37.5 0.1 336.9 14.5
2002-11-29 08:45:30 51°13.702 2°55.727 35.5 0.2 9.1 14.7
2002-11-29 08:45:36 51°13.702 2°55.727 32.8 0.4 18.6 14.5
2002-11-29 08:45:40 51°13.703 2°55.728 29.8 0.5 23.3 14.5
2002-11-29 08:45:44 51°13.704 2°55.728 26.3 0.7 22 14
2002-11-29 08:45:50 51°13.705 2°55.728 22.5 0.9 17.8 13.1
2002-11-29 08:45:56 51°13.707 2°55.729 18.3 1.1 13.5 13.6
2002-11-29 08:46:00 51°13.709 2°55.729 13.3 1.2 10.5 13.9
2002-11-29 08:46:04 51°13.711 2°55.729 8 1.5 4.6 13.6
2002-11-29 08:46:09 51°13.713 2°55.729 2.7 1.6 359.1 13.5
2002-11-29 08:46:16 51°13.717 2°55.728 357.3 1.8 353.9 13.2
2002-11-29 08:46:20 51°13.719 2°55.727 351.2 2 349.5 12.4
2002-11-29 08:46:24 51°13.722 2°55.725 346.2 2.4 343 12.3
2002-11-29 08:46:30 51°13.726 2°55.722 342.8 2.6 339.3 11.7
2002-11-29 08:46:35 51°13.73 2°55.72 340.3 2.9 336.7 12.1
2002-11-29 08:46:40 51°13.734 2°55.717 338.8 3.1 335.3 12
2002-11-29 08:46:46 51°13.739 2°55.713 338 3.3 334.2 12.2
2002-11-29 08:46:50 51°13.743 2°55.71 337.3 3.5 333.5 11.9
2002-11-29 08:46:55 51°13.747 2°55.706 337 3.7 332.9 12
2002-11-29 08:47:00 51°13.752 2°55.702 336.8 3.9 332.6 11.5
2002-11-29 08:47:05 51°13.757 2°55.698 336.8 4.1 332.4 11.8
2002-11-29 08:47:10 51°13.762 2°55.694 337 4.2 332.5 11.7
2002-11-29 08:47:16 51°13.769 2°55.688 337.2 4.4 332.8 11.3
2002-11-29 08:47:20 51°13.774 2°55.684 337 4.6 332.8 11.9
2002-11-29 08:47:25 51°13.78 2°55.679 337 4.9 332.5 11.8
2002-11-29 08:47:30 51°13.786 2°55.674 336.8 5.1 332.7 11.9
2002-11-29 08:47:36 51°13.795 2°55.667 336.3 5.4 332.4 12
2002-11-29 08:47:40 51°13.8 2°55.662 336.2 5.6 331.9 12
2002-11-29 08:47:45 51°13.808 2°55.656 336.8 5.8 332.4 -999
2002-11-29 08:47:50 51°13.815 2°55.65 338 6 332.7 12.2
2002-11-29 08:47:55 51°13.823 2°55.644 338.8 6.1 333.8 12.7
2002-11-29 08:48:00 51°13.83 2°55.638 339.2 6.2 334.2 12.4
2002-11-29 08:48:06 51°13.84 2°55.631 339.2 6.3 335.1 12.4
2002-11-29 08:48:11 51°13.848 2°55.625 339 6.5 334.9 12.4
2002-11-29 08:48:15 51°13.855 2°55.62 339.3 6.6 335.2 12.3
2002-11-29 08:48:20 51°13.863 2°55.614 339.8 6.6 335.3 12.2
2002-11-29 08:48:24 51°13.87 2°55.609 340.3 6.7 335.6 12.2
2002-11-29 08:48:30 51°13.881 2°55.602 341 6.8 336.1 12.3
2002-11-29 08:48:35 51°13.89 2°55.596 341.5 6.9 336.4 12.3
2002-11-29 08:48:40 51°13.899 2°55.59 341.7 7 336.8 12.1
2002-11-29 08:48:44 51°13.906 2°55.585 341.7 7.1 337.2 12
2002-11-29 08:48:50 51°13.917 2°55.578 341.3 7.1 337.2 12
2002-11-29 08:48:56 51°13.928 2°55.571 341 7.2 337.2 11.8
2002-11-29 08:49:00 51°13.935 2°55.565 340.8 7.3 336.8 12.1
2002-11-29 08:49:06 51°13.946 2°55.558 341 7.3 336.8 11.9
2002-11-29 08:49:11 51°13.956 2°55.551 341.3 7.3 337.1 11.8
2002-11-29 08:49:16 51°13.965 2°55.545 341.8 7.4 337.6 12.1
2002-11-29 08:49:19 51°13.971 2°55.542 342.5 7.4 338.1 11.9
2002-11-29 08:49:25 51°13.983 2°55.535 343 7.4 338.5 12
2002-11-29 08:49:30 51°13.992 2°55.528 342.8 7.5 338.8 12.1
2002-11-29 08:49:35 51°14.002 2°55.522 342.7 7.5 338.7 11.9
2002-11-29 08:49:40 51°14.012 2°55.516 342.8 7.5 338.8 11.8
2002-11-29 08:49:46 51°14.024 2°55.509 343.2 7.6 338.7 11.5
2002-11-29 08:49:51 51°14.034 2°55.504 343.8 7.6 339.2 11.6
2002-11-29 08:49:55 51°14.042 2°55.499 343.7 7.6 339.4 11.7
2002-11-29 08:50:00 51°14.051 2°55.493 343.3 7.6 339.1 11.4
2002-11-29 08:50:05 51°14.061 2°55.487 343.2 7.6 338.9 11.4
2002-11-29 08:50:10 51°14.071 2°55.481 343.3 7.7 338.8 11.2
2002-11-29 08:50:16 51°14.083 2°55.473 343.5 7.8 338.8 11.4
2002-11-29 08:50:20 51°14.092 2°55.468 343.8 7.8 338.8 11.1
2002-11-29 08:50:25 51°14.102 2°55.462 343.3 7.9 338.9 11.1
2002-11-29 08:50:31 51°14.114 2°55.454 342.2 7.9 338.3 11
2002-11-29 08:50:35 51°14.122 2°55.448 340.2 8 336.7 11.2
2002-11-29 08:50:40 51°14.132 2°55.44 338.3 8 335.1 11.3
2002-11-29 08:50:45 51°14.142 2°55.432 336.7 8.1 333.2 11.4
2002-11-29 08:50:50 51°14.152 2°55.423 335.3 8.1 331.6 10.8
2002-11-29 08:50:55 51°14.161 2°55.414 333.7 8.1 330.1 11.6
2002-11-29 08:51:00 51°14.171 2°55.404 332.2 8.1 328.8 11.6
2002-11-29 08:51:06 51°14.182 2°55.392 330.7 8.1 327.4 11.2
2002-11-29 08:51:10 51°14.189 2°55.384 329.2 8.2 325.6 11.5
2002-11-29 08:51:16 51°14.2 2°55.371 327.7 8.2 324.5 11.9
2002-11-29 08:51:20 51°14.208 2°55.361 325 8.4 322.9 11.9
2002-11-29 08:51:25 51°14.217 2°55.349 322.3 8.7 320.1 11.9
2002-11-29 08:51:30 51°14.226 2°55.335 319.7 8.9 317.5 11.9
2002-11-29 08:51:36 51°14.237 2°55.317 317.8 9.1 315.4 11.8
2002-11-29 08:51:40 51°14.244 2°55.305 316 9.2 314 11.9
2002-11-29 08:51:45 51°14.252 2°55.29 315.2 9.4 312.7 11.9
2002-11-29 08:51:50 51°14.261 2°55.274 314.3 9.5 311.3 11.9
2002-11-29 08:51:56 51°14.271 2°55.254 313 9.6 310 11.5
2002-11-29 08:52:00 51°14.278 2°55.24 311.5 9.7 309 11.8
2002-11-29 08:52:05 51°14.286 2°55.222 310.8 9.8 307.3 11.4
2002-11-29 08:52:10 51°14.294 2°55.205 311.2 9.8 307.2 11.6
2002-11-29 08:52:15 51°14.302 2°55.188 311.7 9.9 307.2 11.6
2002-11-29 08:52:20 51°14.311 2°55.17 312.5 9.9 307.7 11.9
2002-11-29 08:52:25 51°14.32 2°55.153 312.5 10 308.1 11.8
2002-11-29 08:52:30 51°14.328 2°55.136 311.8 10 307.8 11.9
2002-11-29 08:52:35 51°14.336 2°55.118 311.8 10.1 307.4 11.8
2002-11-29 08:52:40 51°14.345 2°55.1 312.3 10.1 307.6 11.8
2002-11-29 08:52:46 51°14.355 2°55.079 312 10.1 307.8 12.1
2002-11-29 08:52:51 51°14.364 2°55.06 311.2 10.3 307.2 11.8
2002-11-29 08:52:56 51°14.372 2°55.041 309.7 10.5 306.1 12.1
2002-11-29 08:53:00 51°14.379 2°55.025 306.3 10.6 304.5 12
2002-11-29 08:53:06 51°14.387 2°54.999 302.2 10.9 300.6 11.9
2002-11-29 08:53:10 51°14.393 2°54.981 297.7 11.1 297 12.1
2002-11-29 08:53:16 51°14.4 2°54.953 293.7 11.3 293.5 11.7
2002-11-29 08:53:20 51°14.404 2°54.933 290.8 11.4 291.6 11.8
2002-11-29 08:53:25 51°14.409 2°54.909 288.7 11.6 288.6 -999
2002-11-29 08:53:30 51°14.413 2°54.884 285.7 11.6 286.3 12.2
2002-11-29 08:53:36 51°14.416 2°54.854 281.5 11.5 283.1 12.1
2002-11-29 08:53:40 51°14.417 2°54.834 277.2 11.5 278.6 11.9
2002-11-29 08:53:45 51°14.418 2°54.809 274.3 11.4 275.5 11.7
2002-11-29 08:53:50 51°14.419 2°54.783 273.3 11.5 273 11.9
2002-11-29 08:53:56 51°14.42 2°54.753 273.2 11.5 272.5 11.7
2002-11-29 08:54:00 51°14.42 2°54.732 271.5 11.5 271.8 12
2002-11-29 08:54:04 51°14.42 2°54.712 270 11.6 270 12.2
2002-11-29 08:54:10 51°14.419 2°54.681 269 11.6 268.9 12
2002-11-29 08:54:16 51°14.419 2°54.651 269 11.6 268.1 11.9
2002-11-29 08:54:20 51°14.418 2°54.63 270 11.6 268.5 11.9
2002-11-29 08:54:24 51°14.418 2°54.609 269.8 11.7 269.1 12
2002-11-29 08:54:31 51°14.418 2°54.573 269.3 11.7 268.6 11.7
2002-11-29 08:54:35 51°14.417 2°54.552 268.2 11.7 267.9 12.5
2002-11-29 08:54:40 51°14.415 2°54.527 266.8 11.7 266.5 12.3
2002-11-29 08:54:46 51°14.413 2°54.496 265.2 11.7 265.1 12.1
2002-11-29 08:54:50 51°14.411 2°54.476 262.5 11.6 262.5 11.6
2002-11-29 08:54:56 51°14.407 2°54.446 259.8 11.6 260 11.5
2002-11-29 08:55:00 51°14.404 2°54.426 257 11.5 257.7 10.8
2002-11-29 08:55:04 51°14.4 2°54.407 255.3 11.5 255.6 11.3
2002-11-29 08:55:10 51°14.395 2°54.378 254.3 11.5 253.5 10.9
2002-11-29 08:55:15 51°14.39 2°54.353 253.7 11.5 252.7 11.1
2002-11-29 08:55:20 51°14.385 2°54.329 253.3 11.5 252.1 10.8
2002-11-29 08:55:26 51°14.379 2°54.3 253 11.5 251.5 11
2002-11-29 08:55:30 51°14.375 2°54.281 252.3 11.5 251.3 10.8
2002-11-29 08:55:35 51°14.369 2°54.257 251.2 11.5 250.2 11.1
2002-11-29 08:55:40 51°14.363 2°54.234 249 11.5 248.9 10.9
2002-11-29 08:55:46 51°14.354 2°54.207 245.8 11.5 246.4 11.1
2002-11-29 08:55:50 51°14.348 2°54.189 244.2 11.5 243.1 11.1
2002-11-29 08:55:55 51°14.34 2°54.166 243.8 11.5 241.9 10.6
2002-11-29 08:56:00 51°14.332 2°54.144 243.5 11.6 241.6 10.6
2002-11-29 08:56:05 51°14.325 2°54.121 244 11.7 241.9 11
2002-11-29 08:56:10 51°14.317 2°54.098 244.2 11.8 242.2 10.8
2002-11-29 08:56:15 51°14.309 2°54.075 244.3 11.9 242.3 10.9
2002-11-29 08:56:20 51°14.302 2°54.051 244.7 11.9 242.5 11.1
2002-11-29 08:56:26 51°14.292 2°54.023 244.5 12 242.6 10.7
2002-11-29 08:56:30 51°14.286 2°54.003 244.5 12 242.9 11
2002-11-29 08:56:35 51°14.279 2°53.98 244.7 12 242.8 10.8
2002-11-29 08:56:40 51°14.271 2°53.956 244.5 12 242.9 11.1
2002-11-29 08:56:45 51°14.264 2°53.932 244.7 12.1 242.8 10.9
2002-11-29 08:56:50 51°14.256 2°53.908 244.7 12.3 242.7 10.9
2002-11-29 08:56:55 51°14.248 2°53.883 244.7 12.4 242.9 10.9
2002-11-29 08:57:00 51°14.24 2°53.858 244.7 12.5 242.9 10.8
2002-11-29 08:57:06 51°14.23 2°53.828 244.5 12.6 243 11
2002-11-29 08:57:10 51°14.224 2°53.808 244.7 12.7 243 11.1
2002-11-29 08:57:15 51°14.216 2°53.783 245 12.7 243.1 10.8
2002-11-29 08:57:20 51°14.208 2°53.757 245.2 12.8 243.6 10.8
2002-11-29 08:57:24 51°14.202 2°53.737 244.8 12.8 243.3 11.1
2002-11-29 08:57:30 51°14.192 2°53.707 244.8 12.9 243.3 10.9
2002-11-29 08:57:35 51°14.184 2°53.681 244.7 12.9 243 11.1
2002-11-29 08:57:40 51°14.176 2°53.656 244.7 12.9 243 10.9
2002-11-29 08:57:45 51°14.168 2°53.631 244.8 12.9 243.2 11.1
2002-11-29 08:57:50 51°14.16 2°53.605 244.8 12.9 243.1 11
2002-11-29 08:57:55 51°14.152 2°53.58 244.8 12.9 243.5 11.1
2002-11-29 08:58:00 51°14.144 2°53.554 244.8 12.9 243.3 11.3
2002-11-29 08:58:06 51°14.134 2°53.524 244.5 12.9 243.1 11.3
2002-11-29 08:58:10 51°14.127 2°53.503 244.5 12.9 243.1 11.3
2002-11-29 08:58:15 51°14.119 2°53.478 244.7 12.9 243 11.3
2002-11-29 08:58:20 51°14.111 2°53.453 244.8 12.9 243.3 11.3
2002-11-29 08:58:24 51°14.105 2°53.432 245 12.9 243.3 11.2
2002-11-29 08:58:30 51°14.095 2°53.401 245.2 12.9 243.6 11.4
2002-11-29 08:58:35 51°14.087 2°53.376 245 12.9 243.3 11.4
2002-11-29 08:58:40 51°14.079 2°53.351 245 12.9 243.5 11.4
2002-11-29 08:58:45 51°14.071 2°53.325 245.3 12.9 243.5 11
2002-11-29 08:58:50 51°14.063 2°53.3 245.5 12.9 243.8 11.1
2002-11-29 08:58:55 51°14.055 2°53.274 245.3 12.9 243.6 11.6
2002-11-29 08:59:00 51°14.047 2°53.249 245.2 12.9 243.6 11.6
2002-11-29 08:59:04 51°14.041 2°53.228 244.8 12.9 243.1 11.4
2002-11-29 08:59:10 51°14.031 2°53.198 244.5 12.8 242.9 11.4
2002-11-29 08:59:15 51°14.023 2°53.173 244.8 12.9 243 11.5
2002-11-29 08:59:20 51°14.015 2°53.147 244.8 12.9 243.1 11.6
2002-11-29 08:59:26 51°14.005 2°53.117 245.3 12.9 243.4 11.7
2002-11-29 08:59:31 51°13.997 2°53.091 245.3 12.9 243.7 11.8
2002-11-29 08:59:35 51°13.991 2°53.071 245.7 12.9 243.8 11.7
2002-11-29 08:59:40 51°13.983 2°53.045 245.2 12.9 243.7 11.8
2002-11-29 08:59:45 51°13.975 2°53.02 245.2 12.9 243.4 11.5
2002-11-29 08:59:50 51°13.967 2°52.994 244.8 12.9 243.1 11.9
2002-11-29 08:59:55 51°13.959 2°52.969 245 12.9 243.2 11.7
2002-11-29 09:00:00 51°13.95 2°52.943 244.8 12.9 243.3 11.9
2002-11-29 09:00:05 51°13.942 2°52.918 245.2 12.9 243.3 11.9
2002-11-29 09:00:08 51°13.938 2°52.902 245.2 12.9 243.4 12
2002-11-29 09:00:15 51°13.926 2°52.866 245.3 12.9 243.3 11.9
2002-11-29 09:00:20 51°13.918 2°52.841 245.2 12.9 243.4 11.9
2002-11-29 09:00:26 51°13.909 2°52.811 245 12.9 243.2 11.8
2002-11-29 09:00:30 51°13.902 2°52.79 245 12.9 243.2 11.8
2002-11-29 09:00:35 51°13.894 2°52.764 245.3 12.9 243.4 12.1
2002-11-29 09:00:40 51°13.886 2°52.739 245 12.9 243.5 11.8
2002-11-29 09:00:44 51°13.88 2°52.718 244.7 12.9 243.2 11.9
2002-11-29 09:00:50 51°13.869 2°52.688 244.2 12.9 242.5 12.1
2002-11-29 09:00:56 51°13.859 2°52.658 243.8 12.9 242.4 12.2
2002-11-29 09:01:00 51°13.852 2°52.638 244 12.9 241.9 12.1
2002-11-29 09:01:06 51°13.842 2°52.608 244 12.9 242.1 12.2
2002-11-29 09:01:10 51°13.836 2°52.588 243.8 12.9 242 12.2
2002-11-29 09:01:15 51°13.827 2°52.563 244.2 12.9 242.1 12.1
2002-11-29 09:01:20 51°13.819 2°52.537 244.2 12.9 242.2 12.2
2002-11-29 09:01:26 51°13.809 2°52.507 244 12.9 242.2 11.8
2002-11-29 09:01:31 51°13.8 2°52.482 244 12.9 242.1 12.1
2002-11-29 09:01:35 51°13.794 2°52.462 243.8 12.9 242.1 12.2
2002-11-29 09:01:40 51°13.785 2°52.437 244 12.9 241.9 11.9
2002-11-29 09:01:46 51°13.774 2°52.407 244.2 12.9 242.1 12.3
2002-11-29 09:01:50 51°13.768 2°52.387 244.5 12.9 242.4 12.3
2002-11-29 09:01:56 51°13.758 2°52.356 244.3 12.9 242.3 12.2
2002-11-29 09:02:00 51°13.752 2°52.336 244.5 12.9 242.5 12.3
2002-11-29 09:02:04 51°13.745 2°52.316 244.5 12.9 242.4 12
2002-11-29 09:02:10 51°13.735 2°52.286 244.5 12.9 242.7 12.2
2002-11-29 09:02:15 51°13.727 2°52.261 244.3 12.9 242.3 12.1
2002-11-29 09:02:20 51°13.719 2°52.235 244 12.9 242.1 12.1
2002-11-29 09:02:24 51°13.712 2°52.215 244.2 12.9 242.2 12
2002-11-29 09:02:31 51°13.7 2°52.18 244 12.9 242.2 11.6
2002-11-29 09:02:36 51°13.692 2°52.155 244.2 12.9 242.1 12.3
2002-11-29 09:02:40 51°13.685 2°52.135 244 12.9 241.7 11.9
2002-11-29 09:02:46 51°13.675 2°52.104 244.5 12.9 242.3 12.3
2002-11-29 09:02:50 51°13.668 2°52.084 244.5 12.9 242.3 11.8
2002-11-29 09:02:56 51°13.658 2°52.054 244.7 12.9 242.6 12.2
2002-11-29 09:03:00 51°13.651 2°52.034 244.8 12.9 242.6 12.3
2002-11-29 09:03:06 51°13.641 2°52.003 244.7 12.9 242.6 12.3
2002-11-29 09:03:10 51°13.635 2°51.983 244.3 12.9 242.5 12.3
2002-11-29 09:03:15 51°13.626 2°51.958 244.2 12.9 242.2 12.1
2002-11-29 09:03:20 51°13.618 2°51.933 243.7 12.9 241.9 12
2002-11-29 09:03:24 51°13.611 2°51.913 243.7 12.9 241.4 12
2002-11-29 09:03:31 51°13.599 2°51.878 244.3 12.9 241.7 12.4
2002-11-29 09:03:36 51°13.591 2°51.853 244.2 12.9 241.9 12.4
2002-11-29 09:03:40 51°13.585 2°51.833 244.3 12.9 242 12.3
2002-11-29 09:03:46 51°13.575 2°51.802 244.7 12.9 242.2 12.3
2002-11-29 09:03:50 51°13.568 2°51.782 244.5 12.9 242.2 12.1
2002-11-29 09:03:56 51°13.558 2°51.752 244.5 12.9 242.1 12.5
2002-11-29 09:04:00 51°13.551 2°51.732 244.5 12.9 242.1 12.4
2002-11-29 09:04:04 51°13.544 2°51.712 244.7 12.9 242.3 12.5
2002-11-29 09:04:10 51°13.534 2°51.682 244.3 12.9 242 12.1
2002-11-29 09:04:16 51°13.524 2°51.652 244.5 12.9 242.1 12.4
2002-11-29 09:04:20 51°13.517 2°51.632 244 12.9 241.9 12.4
2002-11-29 09:04:26 51°13.507 2°51.601 244.3 12.9 241.6 -999
2002-11-29 09:04:30 51°13.5 2°51.581 244.2 12.8 242.1 12.3
2002-11-29 09:04:35 51°13.492 2°51.555 244.2 12.8 241.8 12.6
2002-11-29 09:04:40 51°13.484 2°51.53 244.5 12.8 242.2 12.5
2002-11-29 09:04:46 51°13.473 2°51.5 244.3 12.9 242 12.4
2002-11-29 09:04:50 51°13.467 2°51.48 244.5 12.9 242.1 12.6
2002-11-29 09:04:55 51°13.458 2°51.455 244.2 12.9 241.9 12.6
2002-11-29 09:05:00 51°13.45 2°51.43 244.2 12.9 241.9 12.7
2002-11-29 09:05:04 51°13.443 2°51.41 244.2 12.9 242 12.7
2002-11-29 09:05:10 51°13.433 2°51.379 244.5 12.9 242 12.6
2002-11-29 09:05:15 51°13.425 2°51.354 244.5 12.9 242.2 12.7
2002-11-29 09:05:20 51°13.416 2°51.329 244.7 12.9 242.3 12.5
2002-11-29 09:05:26 51°13.406 2°51.299 244.7 12.9 242.2 12.6
2002-11-29 09:05:30 51°13.4 2°51.279 244.5 12.9 242.2 12.5
2002-11-29 09:05:35 51°13.391 2°51.253 244.2 12.9 242 12.7
2002-11-29 09:05:40 51°13.383 2°51.228 244 12.9 241.7 12.5
2002-11-29 09:05:46 51°13.372 2°51.198 244 12.9 241.7 12.5
2002-11-29 09:05:50 51°13.366 2°51.178 244.5 12.9 242.1 12.6
2002-11-29 09:05:56 51°13.356 2°51.148 244.8 12.9 242.3 12.8
2002-11-29 09:06:00 51°13.349 2°51.128 244.5 12.9 242.3 12.7
2002-11-29 09:06:06 51°13.339 2°51.098 244.5 12.9 242.3 12.7
2002-11-29 09:06:10 51°13.332 2°51.077 244.3 12.9 242.2 12.8
2002-11-29 09:06:16 51°13.322 2°51.047 244.2 12.9 241.9 12.8
2002-11-29 09:06:20 51°13.316 2°51.027 244.3 12.9 241.9 12.6
2002-11-29 09:06:25 51°13.307 2°51.002 244.7 12.8 242.2 12.6
2002-11-29 09:06:30 51°13.299 2°50.977 244.5 12.9 242.1 12.7
2002-11-29 09:06:35 51°13.29 2°50.952 244.7 12.9 242 12.7
2002-11-29 09:06:40 51°13.282 2°50.927 244.2 12.8 242.1 12.6
2002-11-29 09:06:46 51°13.272 2°50.896 244.3 12.8 242 12.8
2002-11-29 09:06:50 51°13.265 2°50.877 244.2 12.9 241.7 12.8
2002-11-29 09:06:56 51°13.255 2°50.846 244.5 12.9 242 12.8
2002-11-29 09:07:00 51°13.248 2°50.826 244.3 12.9 241.9 12.8
2002-11-29 09:07:04 51°13.242 2°50.806 244.5 12.9 242.1 12.7
2002-11-29 09:07:10 51°13.231 2°50.776 244.3 12.9 242 12.6
2002-11-29 09:07:15 51°13.223 2°50.751 244.2 12.8 241.9 12.5
2002-11-29 09:07:20 51°13.215 2°50.727 244.2 12.8 241.9 12.5
2002-11-29 09:07:26 51°13.204 2°50.697 243.8 12.8 241.5 12.9
2002-11-29 09:07:30 51°13.198 2°50.677 243.5 12.8 241.4 12.7
2002-11-29 09:07:35 51°13.189 2°50.652 243.3 12.8 241.2 12.9
2002-11-29 09:07:40 51°13.18 2°50.627 244 12.9 241.3 12.5
2002-11-29 09:07:46 51°13.17 2°50.597 244.5 12.9 241.8 12.9
2002-11-29 09:07:50 51°13.164 2°50.576 244.8 12.8 242.4 12.9
2002-11-29 09:07:56 51°13.154 2°50.546 244.7 12.8 242.3 12.7
2002-11-29 09:08:00 51°13.147 2°50.526 244.7 12.8 242.4 12.9
2002-11-29 09:08:06 51°13.137 2°50.496 244.2 12.9 241.7 12.9
2002-11-29 09:08:10 51°13.13 2°50.476 244 12.9 241.7 12.7
2002-11-29 09:08:16 51°13.12 2°50.446 243.8 12.9 241.4 12.9
2002-11-29 09:08:20 51°13.113 2°50.426 244.3 12.9 241.8 13
2002-11-29 09:08:26 51°13.103 2°50.396 244.7 12.9 241.9 13
2002-11-29 09:08:31 51°13.095 2°50.371 245 12.9 242.6 12.9
2002-11-29 09:08:36 51°13.087 2°50.345 244.5 12.8 242.4 12.9
2002-11-29 09:08:40 51°13.08 2°50.325 244.5 12.9 242.3 12.7
2002-11-29 09:08:44 51°13.074 2°50.306 244.5 12.9 242 13
2002-11-29 09:08:50 51°13.064 2°50.275 244.3 12.9 242.1 13
2002-11-29 09:08:56 51°13.053 2°50.245 243.8 12.9 241.6 12.8
2002-11-29 09:09:00 51°13.047 2°50.225 244 12.9 241.7 12.9
2002-11-29 09:09:06 51°13.036 2°50.195 243.7 12.9 241.3 12.9
2002-11-29 09:09:10 51°13.029 2°50.175 244.3 12.9 241.5 13
2002-11-29 09:09:16 51°13.02 2°50.145 244.7 12.9 241.9 13.1
2002-11-29 09:09:20 51°13.013 2°50.125 244.5 12.9 242.1 12.8
2002-11-29 09:09:26 51°13.002 2°50.095 244.2 12.9 241.9 12.9
2002-11-29 09:09:30 51°12.996 2°50.075 244.2 12.9 241.6 13.1
2002-11-29 09:09:35 51°12.987 2°50.049 244 12.9 241.7 12.8
2002-11-29 09:09:40 51°12.979 2°50.024 244 12.9 241.5 12.9
2002-11-29 09:09:45 51°12.971 2°49.999 244.5 12.9 241.8 13.1
2002-11-29 09:09:49 51°12.964 2°49.979 244.5 12.9 241.9 12.9
2002-11-29 09:09:55 51°12.954 2°49.949 244.2 12.9 241.9 13.1
2002-11-29 09:10:00 51°12.945 2°49.924 244.5 12.9 241.7 12.9
2002-11-29 09:10:06 51°12.936 2°49.893 244.5 12.9 242.2 13
2002-11-29 09:10:11 51°12.927 2°49.868 244.7 12.9 242.1 12.9
2002-11-29 09:10:15 51°12.92 2°49.848 244.7 12.9 242.3 13.1
2002-11-29 09:10:20 51°12.912 2°49.823 244.7 12.9 241.9 13.1
2002-11-29 09:10:25 51°12.903 2°49.798 244.3 12.9 241.8 13.1
2002-11-29 09:10:30 51°12.895 2°49.773 244.5 12.9 241.8 13
2002-11-29 09:10:36 51°12.885 2°49.743 244.3 12.9 241.7 13.3
2002-11-29 09:10:40 51°12.878 2°49.723 244.2 12.8 241.7 13.1
2002-11-29 09:10:46 51°12.868 2°49.693 244.3 12.9 241.7 13.2
2002-11-29 09:10:50 51°12.861 2°49.673 244.8 12.9 242.2 13
2002-11-29 09:10:55 51°12.853 2°49.647 244.5 12.9 242.2 13.2
2002-11-29 09:11:00 51°12.845 2°49.622 244.7 12.9 242.1 13
2002-11-29 09:11:06 51°12.835 2°49.592 244.2 12.9 241.9 13.1
2002-11-29 09:11:11 51°12.826 2°49.567 244.3 12.9 241.8 13.3
2002-11-29 09:11:16 51°12.818 2°49.542 244.3 12.9 241.8 12.9
2002-11-29 09:11:20 51°12.811 2°49.522 244.5 12.9 242 13.1
2002-11-29 09:11:24 51°12.804 2°49.502 244.2 12.9 241.8 13.3
2002-11-29 09:11:30 51°12.794 2°49.472 244.2 12.9 242 13
2002-11-29 09:11:36 51°12.784 2°49.442 244 12.9 241.8 12.9
2002-11-29 09:11:40 51°12.777 2°49.422 244.5 12.9 242 13.2
2002-11-29 09:11:45 51°12.768 2°49.397 244.8 12.9 242 13.3
2002-11-29 09:11:51 51°12.759 2°49.367 245 12.9 242.4 13.2
2002-11-29 09:11:56 51°12.75 2°49.342 244.8 12.9 242.4 13.1
2002-11-29 09:12:00 51°12.743 2°49.322 244.5 12.9 242.2 13.3
2002-11-29 09:12:06 51°12.733 2°49.292 244 12.9 241.6 13.3
2002-11-29 09:12:10 51°12.726 2°49.272 244 12.9 241.4 13.3
2002-11-29 09:12:15 51°12.717 2°49.246 244 12.9 241.4 13.4
2002-11-29 09:12:20 51°12.709 2°49.221 244.5 12.9 241.7 13.2
2002-11-29 09:12:25 51°12.701 2°49.196 244.5 12.9 241.9 13.4
2002-11-29 09:12:30 51°12.692 2°49.171 244.3 12.9 241.7 13.4
2002-11-29 09:12:36 51°12.682 2°49.141 244 12.9 241.6 13.1
2002-11-29 09:12:40 51°12.675 2°49.121 244.3 12.9 241.7 13.2
2002-11-29 09:12:46 51°12.665 2°49.091 244.5 12.9 241.9 13.4
2002-11-29 09:12:50 51°12.658 2°49.07 244.8 12.9 242.2 13.4
2002-11-29 09:12:55 51°12.65 2°49.045 244.8 12.9 242.3 13.4
2002-11-29 09:13:00 51°12.642 2°49.02 244.3 12.9 242.2 13.4
2002-11-29 09:13:06 51°12.631 2°48.99 244.2 12.9 241.8 13.5
2002-11-29 09:13:10 51°12.625 2°48.97 244 12.9 241.7 13.5
2002-11-29 09:13:16 51°12.615 2°48.94 244.3 12.9 241.7 13.5
2002-11-29 09:13:20 51°12.608 2°48.92 244.3 12.9 241.8 13.5
2002-11-29 09:13:26 51°12.598 2°48.889 244.5 12.9 242 13.1
2002-11-29 09:13:30 51°12.591 2°48.869 244.3 12.9 241.9 13.3
2002-11-29 09:13:35 51°12.582 2°48.844 244.2 13 241.9 13.1
2002-11-29 09:13:40 51°12.574 2°48.819 244.2 13 241.8 13.6
2002-11-29 09:13:46 51°12.564 2°48.789 244.7 12.9 241.8 13.6
2002-11-29 09:13:50 51°12.557 2°48.768 244.2 12.9 241.7 13.5
2002-11-29 09:13:55 51°12.549 2°48.743 244.2 12.9 241.7 13.6
2002-11-29 09:14:00 51°12.54 2°48.718 244.5 12.9 241.8 13.5
2002-11-29 09:14:04 51°12.533 2°48.698 244.3 12.9 241.9 13.7
2002-11-29 09:14:10 51°12.523 2°48.668 244.3 12.9 241.8 13.2
2002-11-29 09:14:16 51°12.513 2°48.637 244.2 12.9 241.8 13.4
2002-11-29 09:14:20 51°12.506 2°48.617 244.3 12.9 241.8 13.6
2002-11-29 09:14:24 51°12.499 2°48.597 244.2 12.9 241.8 13.7
2002-11-29 09:14:30 51°12.489 2°48.566 244.5 13 241.8 13.7
2002-11-29 09:14:36 51°12.479 2°48.536 244.5 13 241.9 13.6
2002-11-29 09:14:40 51°12.472 2°48.516 244.3 12.9 242 13.6
2002-11-29 09:14:44 51°12.466 2°48.496 244.5 12.9 242.1 13.6
2002-11-29 09:14:50 51°12.456 2°48.466 244.3 12.9 242 13.8
2002-11-29 09:14:55 51°12.447 2°48.441 244.2 12.9 241.7 13.6
2002-11-29 09:15:00 51°12.438 2°48.416 244 12.9 241.5 13.9
2002-11-29 09:15:05 51°12.43 2°48.391 243.8 12.9 241.3 -999
2002-11-29 09:15:11 51°12.42 2°48.361 244.3 12.9 241.6 13.6
2002-11-29 09:15:16 51°12.411 2°48.336 244.3 12.9 241.9 13.7
2002-11-29 09:15:20 51°12.405 2°48.316 244.2 12.9 241.8 13.5
2002-11-29 09:15:26 51°12.394 2°48.285 244.2 12.9 241.7 13.3
2002-11-29 09:15:30 51°12.387 2°48.266 243.7 12.9 241.4 13.6
2002-11-29 09:15:35 51°12.379 2°48.241 244 12.9 241.5 13.5
2002-11-29 09:15:40 51°12.371 2°48.216 244.7 12.9 241.6 13.8
2002-11-29 09:15:44 51°12.364 2°48.195 245.2 12.9 242.5 13.8
2002-11-29 09:15:51 51°12.352 2°48.159 245 12.9 242.7 13.8
2002-11-29 09:15:56 51°12.344 2°48.134 245.5 13 242.9 13.3
2002-11-29 09:16:00 51°12.338 2°48.114 245 12.9 242.8 13.8
2002-11-29 09:16:06 51°12.328 2°48.084 244.3 12.9 242.3 13.7
2002-11-29 09:16:11 51°12.319 2°48.058 244.3 13 241.8 13.7
2002-11-29 09:16:15 51°12.312 2°48.038 244.2 13 241.8 13.7
2002-11-29 09:16:20 51°12.304 2°48.013 244.2 13 241.8 13.9
2002-11-29 09:16:26 51°12.294 2°47.983 244.2 13 241.7 13.9
2002-11-29 09:16:30 51°12.287 2°47.963 244.2 13 241.6 14
2002-11-29 09:16:35 51°12.279 2°47.937 244.3 13 241.8 14
2002-11-29 09:16:40 51°12.27 2°47.912 244.5 13 241.8 13.9
2002-11-29 09:16:44 51°12.263 2°47.892 244.3 13 242 13.9
2002-11-29 09:16:50 51°12.253 2°47.862 244.3 13 241.8 13.9
2002-11-29 09:16:56 51°12.243 2°47.831 244.2 13 241.7 13.8
2002-11-29 09:17:00 51°12.235 2°47.811 243.8 13 241.4 14
2002-11-29 09:17:04 51°12.228 2°47.791 244.5 13 241.7 13.9
2002-11-29 09:17:10 51°12.218 2°47.76 244.3 13 241.7 13.8
2002-11-29 09:17:16 51°12.208 2°47.73 244.3 13 241.8 13.8
2002-11-29 09:17:20 51°12.201 2°47.71 244.2 13 241.5 13.5
2002-11-29 09:17:26 51°12.191 2°47.679 244.2 13 241.4 14
2002-11-29 09:17:31 51°12.182 2°47.654 244 13 241.2 13.9
2002-11-29 09:17:35 51°12.175 2°47.634 244.2 13 241.5 13.5
2002-11-29 09:17:40 51°12.166 2°47.608 245 13 241.9 13.6
2002-11-29 09:17:44 51°12.159 2°47.588 244.5 13 242.1 13.9
2002-11-29 09:17:50 51°12.149 2°47.558 244.7 13 241.6 13.8
2002-11-29 09:17:56 51°12.139 2°47.528 244.7 13 241.9 14.1
2002-11-29 09:18:00 51°12.132 2°47.507 244.8 13 242 14.1
2002-11-29 09:18:06 51°12.122 2°47.476 245 13.1 242.2 14.1
2002-11-29 09:18:10 51°12.115 2°47.456 245 13.1 242.4 14.1
2002-11-29 09:18:16 51°12.105 2°47.425 244.5 13.1 242 13.8
2002-11-29 09:18:20 51°12.098 2°47.405 244.2 13.1 241.7 14.1
2002-11-29 09:18:26 51°12.087 2°47.375 243.8 13.1 241.3 14
2002-11-29 09:18:31 51°12.079 2°47.349 243.7 13 241.2 13.9
2002-11-29 09:18:36 51°12.07 2°47.324 243.8 13.1 241.1 14
2002-11-29 09:18:40 51°12.063 2°47.304 244.3 13.2 241.3 14.1
2002-11-29 09:18:44 51°12.056 2°47.283 244.2 13.1 241.4 14
2002-11-29 09:18:51 51°12.044 2°47.248 244 13.1 241.4 14.1
2002-11-29 09:18:56 51°12.035 2°47.222 243.8 13.2 241.5 14.1
2002-11-29 09:19:00 51°12.028 2°47.202 244.7 13.2 241.7 14
2002-11-29 09:19:04 51°12.022 2°47.181 245.8 13.1 243 14.1
2002-11-29 09:19:11 51°12.011 2°47.145 246.7 13.1 243.6 14
2002-11-29 09:19:16 51°12.003 2°47.119 248 13.1 244.9 13.9
2002-11-29 09:19:20 51°11.997 2°47.098 248.5 13.1 245.6 14.1
2002-11-29 09:19:26 51°11.989 2°47.066 249.2 13.1 246.1 13.9
2002-11-29 09:19:30 51°11.983 2°47.045 249.8 13.1 246.8 13.8
2002-11-29 09:19:36 51°11.975 2°47.013 250.3 13.1 247.3 13.8
2002-11-29 09:19:40 51°11.969 2°46.991 250.2 13.1 247.6 14.2
2002-11-29 09:19:44 51°11.964 2°46.97 250.5 13.1 247.6 13.9
2002-11-29 09:19:51 51°11.954 2°46.932 250.3 13.1 247.9 14.2
2002-11-29 09:19:56 51°11.947 2°46.906 250 13.1 247.6 13.9
2002-11-29 09:20:00 51°11.941 2°46.884 249.5 13.1 247.3 14
2002-11-29 09:20:06 51°11.933 2°46.853 249.2 13.1 246.5 14.2
2002-11-29 09:20:11 51°11.925 2°46.826 249.3 13.1 246.5 13.9
2002-11-29 09:20:16 51°11.918 2°46.8 249.5 13.1 246.5 14.1
2002-11-29 09:20:20 51°11.913 2°46.779 250.2 13.1 247 14.1
2002-11-29 09:20:26 51°11.904 2°46.746 250.2 13.1 247.1 14.1
2002-11-29 09:20:31 51°11.897 2°46.719 250.3 13.1 247.5 14
2002-11-29 09:20:36 51°11.89 2°46.693 250.3 13.2 247.5 14.1
2002-11-29 09:20:40 51°11.885 2°46.671 250 13.2 247.4 14
2002-11-29 09:20:46 51°11.876 2°46.639 249.8 13.1 247.1 14
2002-11-29 09:20:50 51°11.871 2°46.618 249.5 13.1 247 14
2002-11-29 09:20:56 51°11.862 2°46.586 249.3 13.1 246.8 14.1
2002-11-29 09:21:00 51°11.856 2°46.565 249.2 13.1 246.3 14.2
2002-11-29 09:21:04 51°11.851 2°46.544 249 13.1 246.4 14.2
2002-11-29 09:21:11 51°11.84 2°46.507 248.7 13 246.1 14.1
2002-11-29 09:21:15 51°11.835 2°46.486 249.2 13 246.4 14.1
2002-11-29 09:21:20 51°11.827 2°46.46 249.3 13 246.4 14.3
2002-11-29 09:21:26 51°11.819 2°46.428 249.8 13.1 246.5 14.1
2002-11-29 09:21:31 51°11.812 2°46.401 250 13 247.2 13.5
2002-11-29 09:21:36 51°11.805 2°46.374 250.2 13.1 247.5 14.1
2002-11-29 09:21:40 51°11.8 2°46.353 250.2 13.1 247.4 14.1
2002-11-29 09:21:46 51°11.791 2°46.321 250 13.1 247.5 14.2
2002-11-29 09:21:51 51°11.784 2°46.295 250.2 13 247.7 14.1
2002-11-29 09:21:55 51°11.779 2°46.273 249.8 13.1 247.4 14.1
2002-11-29 09:22:00 51°11.772 2°46.247 249.7 13.1 247.1 14.1
2002-11-29 09:22:06 51°11.763 2°46.215 249.5 13.1 246.7 14
2002-11-29 09:22:10 51°11.757 2°46.194 249.5 13.1 246.8 13.9
2002-11-29 09:22:16 51°11.749 2°46.162 249.3 13.1 246.5 14.2
2002-11-29 09:22:20 51°11.743 2°46.14 249.2 13.1 246.6 14.1
2002-11-29 09:22:24 51°11.737 2°46.119 249 13.1 246.4 14.1
2002-11-29 09:22:31 51°11.726 2°46.082 248.8 13.1 246.1 14.2
2002-11-29 09:22:36 51°11.719 2°46.056 248.8 13.2 246 14.3
2002-11-29 09:22:40 51°11.713 2°46.035 249 13.1 246.1 14.1
2002-11-29 09:22:44 51°11.707 2°46.014 249.2 13.1 246.2 14.1
2002-11-29 09:22:50 51°11.699 2°45.982 250 13.1 246.9 14.2
2002-11-29 09:22:56 51°11.69 2°45.95 250 13.1 247.1 14
2002-11-29 09:23:00 51°11.685 2°45.928 250 13.1 247.2 14.1
2002-11-29 09:23:06 51°11.676 2°45.897 249.7 13.1 247.2 14
2002-11-29 09:23:10 51°11.671 2°45.875 249.7 13.1 247 13.9
2002-11-29 09:23:15 51°11.663 2°45.849 249 13.1 246.5 14.2
2002-11-29 09:23:20 51°11.656 2°45.822 249.2 13.1 246.4 14.1
2002-11-29 09:23:24 51°11.65 2°45.801 249.5 13.2 246.5 14
2002-11-29 09:23:31 51°11.64 2°45.763 249.8 13.1 247 14.1
2002-11-29 09:23:35 51°11.635 2°45.742 250.2 13.1 247.3 13.6
2002-11-29 09:23:40 51°11.628 2°45.715 250.3 13.1 247.5 13.9
2002-11-29 09:23:46 51°11.619 2°45.683 250.2 13.2 247.5 13.9
2002-11-29 09:23:50 51°11.614 2°45.661 250 13.2 247.4 14.1
2002-11-29 09:23:55 51°11.607 2°45.634 249.8 13.2 247.1 14.1
2002-11-29 09:24:00 51°11.6 2°45.608 249.5 13.2 246.9 14.1
2002-11-29 09:24:06 51°11.591 2°45.576 249.2 13.1 246.5 13.8
2002-11-29 09:24:10 51°11.585 2°45.555 249.2 13.1 246.6 13.7
2002-11-29 09:24:15 51°11.578 2°45.528 249.5 13.1 246.5 14.1
2002-11-29 09:24:20 51°11.571 2°45.501 249.7 13.1 246.8 14
2002-11-29 09:24:26 51°11.562 2°45.47 249.8 13.1 246.9 14
2002-11-29 09:24:30 51°11.557 2°45.448 249.7 13.1 247.1 14
2002-11-29 09:24:35 51°11.549 2°45.421 249.8 13.1 247 13.7
2002-11-29 09:24:40 51°11.542 2°45.395 249.7 13.1 247.1 13.9
2002-11-29 09:24:46 51°11.534 2°45.363 249.3 13.1 246.7 13.8
2002-11-29 09:24:50 51°11.528 2°45.342 249.2 13.1 246.6 14
2002-11-29 09:24:56 51°11.519 2°45.31 249 13.1 246.3 13.9
2002-11-29 09:25:00 51°11.513 2°45.289 249.2 13.1 246.3 13.9
2002-11-29 09:25:04 51°11.508 2°45.268 249.3 13.1 246.5 14
2002-11-29 09:25:11 51°11.498 2°45.231 249.5 13.1 246.7 13.8
2002-11-29 09:25:16 51°11.491 2°45.204 249.7 13.1 247 14
2002-11-29 09:25:20 51°11.485 2°45.183 250 13.1 247.2 13.9
2002-11-29 09:25:26 51°11.477 2°45.151 249.7 13.1 247.2 13.6
2002-11-29 09:25:30 51°11.471 2°45.13 249.7 13.1 247.1 14
2002-11-29 09:25:36 51°11.463 2°45.098 249.7 13.1 247.1 13.9
2002-11-29 09:25:40 51°11.457 2°45.077 249.3 13.1 246.9 13.7
2002-11-29 09:25:45 51°11.45 2°45.051 249 13 246.4 13.9
2002-11-29 09:25:50 51°11.442 2°45.024 249 13.1 246.3 13.7
2002-11-29 09:25:56 51°11.433 2°44.993 248.7 13.1 246.2 13.5
2002-11-29 09:26:00 51°11.427 2°44.972 248.5 13.1 245.9 13.7
2002-11-29 09:26:06 51°11.418 2°44.94 249 13.1 246.1 13.7
2002-11-29 09:26:10 51°11.412 2°44.919 248.8 13.1 246.1 13.5
2002-11-29 09:26:16 51°11.404 2°44.887 249.2 13.1 246.3 13.6
2002-11-29 09:26:20 51°11.398 2°44.866 249.7 13.1 246.8 13.5
2002-11-29 09:26:26 51°11.389 2°44.834 249.5 13.1 246.8 13.2
2002-11-29 09:26:30 51°11.384 2°44.813 249.8 13.1 247.1 13.8
2002-11-29 09:26:36 51°11.375 2°44.78 249.7 13.1 247.1 13.6
2002-11-29 09:26:40 51°11.37 2°44.759 249.7 13.1 247.2 13.9
2002-11-29 09:26:46 51°11.361 2°44.727 249.5 13.1 247.1 13.7
2002-11-29 09:26:50 51°11.355 2°44.706 249.5 13.2 246.9 13.9
2002-11-29 09:26:56 51°11.347 2°44.674 249.7 13.1 247 13.8
2002-11-29 09:26:59 51°11.343 2°44.658 249.7 13.1 247 13.7
2002-11-29 09:27:06 51°11.333 2°44.621 249.5 13.1 247.1 13.6
2002-11-29 09:27:11 51°11.326 2°44.594 249.5 13.2 246.9 13.8
2002-11-29 09:27:15 51°11.32 2°44.573 249.7 13.2 247 13.1
2002-11-29 09:27:20 51°11.313 2°44.546 249.2 13.2 246.9 13.8
2002-11-29 09:27:26 51°11.304 2°44.514 249.2 13.2 246.8 13.8
2002-11-29 09:27:31 51°11.297 2°44.487 249 13.2 246.5 13.7
2002-11-29 09:27:36 51°11.29 2°44.461 249 13.2 246.5 13.7
2002-11-29 09:27:40 51°11.283 2°44.439 249.2 13.2 246.4 13.7
2002-11-29 09:27:44 51°11.278 2°44.418 249.8 13.3 246.8 13.6
2002-11-29 09:27:50 51°11.269 2°44.385 249.5 13.2 247.1 13.6
2002-11-29 09:27:55 51°11.262 2°44.359 249.3 13.2 247 13.6
2002-11-29 09:28:00 51°11.255 2°44.332 249.2 13.2 246.8 13.5
2002-11-29 09:28:04 51°11.249 2°44.31 249.5 13.2 246.9 13.6
2002-11-29 09:28:10 51°11.241 2°44.278 249.7 13.2 247.1 13.6
2002-11-29 09:28:16 51°11.232 2°44.246 249.7 13.2 247.3 13.8
2002-11-29 09:28:20 51°11.226 2°44.224 249.5 13.2 247.2 13.7
2002-11-29 09:28:25 51°11.219 2°44.198 249.7 13.2 247.1 13.7
2002-11-29 09:28:30 51°11.212 2°44.171 249.7 13.2 247.2 13.7
2002-11-29 09:28:35 51°11.205 2°44.144 249.7 13.2 247.1 13.6
2002-11-29 09:28:40 51°11.198 2°44.117 249.7 13.2 247.2 13.7
2002-11-29 09:28:46 51°11.189 2°44.085 249.5 13.2 247 13.6
2002-11-29 09:28:50 51°11.184 2°44.063 249.5 13.2 247 13.7
2002-11-29 09:28:55 51°11.176 2°44.037 249.2 13.2 246.7 13.5
2002-11-29 09:29:00 51°11.169 2°44.01 249 13.2 246.6 13.3
2002-11-29 09:29:06 51°11.16 2°43.978 248.8 13.2 246.3 13.7
2002-11-29 09:29:10 51°11.154 2°43.956 249.2 13.2 246.6 13.6
2002-11-29 09:29:16 51°11.146 2°43.924 249.7 13.2 246.9 13.7
2002-11-29 09:29:20 51°11.14 2°43.903 250 13.2 247.4 13.5
2002-11-29 09:29:26 51°11.132 2°43.87 249.8 13.2 247.5 13.6
2002-11-29 09:29:30 51°11.126 2°43.849 249.5 13.2 247.1 13.6
2002-11-29 09:29:35 51°11.119 2°43.822 250.2 13.2 247.5 13.4
2002-11-29 09:29:40 51°11.112 2°43.795 250.7 13.2 248.1 13.6
2002-11-29 09:29:46 51°11.104 2°43.763 250.5 13.2 248.1 13.5
2002-11-29 09:29:50 51°11.098 2°43.741 250.3 13.2 248 13.1
2002-11-29 09:29:56 51°11.09 2°43.709 250 13.2 247.6 13.3
2002-11-29 09:30:00 51°11.085 2°43.687 250.2 13.3 247.6 13.1
2002-11-29 09:30:06 51°11.076 2°43.655 250.2 13.2 247.4 13.4
2002-11-29 09:30:10 51°11.071 2°43.633 250 13.2 247.5 13.5
2002-11-29 09:30:15 51°11.064 2°43.606 250 13.2 247.4 13.4
2002-11-29 09:30:20 51°11.057 2°43.579 250.3 13.2 247.7 13.5
2002-11-29 09:30:24 51°11.051 2°43.558 250.3 13.2 247.9 13.5
2002-11-29 09:30:30 51°11.043 2°43.525 250.2 13.2 248 13.2
2002-11-29 09:30:36 51°11.035 2°43.493 250.8 13.2 248.1 13.5
2002-11-29 09:30:40 51°11.03 2°43.471 251.3 13.2 248.8 13.1
2002-11-29 09:30:46 51°11.022 2°43.438 251.3 13.2 249 13.4
2002-11-29 09:30:50 51°11.017 2°43.417 251.5 13.2 249.1 13
2002-11-29 09:30:55 51°11.01 2°43.389 251.7 13.2 249 12.9
2002-11-29 09:31:00 51°11.004 2°43.362 251.5 13.2 249.4 13.2
2002-11-29 09:31:06 51°10.996 2°43.329 251.7 13.2 249.3 13.3
2002-11-29 09:31:11 51°10.989 2°43.302 251.3 13.2 249.2 13.1
2002-11-29 09:31:16 51°10.982 2°43.275 251 13.2 248.8 13.4
2002-11-29 09:31:20 51°10.977 2°43.253 251.2 13.2 248.5 12.9
2002-11-29 09:31:26 51°10.969 2°43.22 251.3 13.2 248.8 13.2
2002-11-29 09:31:30 51°10.963 2°43.198 251.2 13.2 248.8 13.5
2002-11-29 09:31:35 51°10.957 2°43.171 251.3 13.2 248.9 13.4
2002-11-29 09:31:40 51°10.95 2°43.144 251.3 13.2 248.9 13.2
2002-11-29 09:31:46 51°10.942 2°43.111 251.5 13.2 249.1 13.2
2002-11-29 09:31:51 51°10.936 2°43.084 252 13.2 249.4 13.5
2002-11-29 09:31:56 51°10.929 2°43.056 251.7 13.3 249.4 13.2
2002-11-29 09:32:00 51°10.924 2°43.034 251.7 13.2 249.2 13.2
2002-11-29 09:32:06 51°10.916 2°43.002 251 13.2 249.1 13
2002-11-29 09:32:10 51°10.911 2°42.98 250.8 13.2 248.3 13.5
2002-11-29 09:32:15 51°10.904 2°42.953 251.5 13.2 249 13.3
2002-11-29 09:32:20 51°10.897 2°42.925 251.3 13.3 249 13.3
2002-11-29 09:32:25 51°10.891 2°42.898 251.2 13.3 249 13.2
2002-11-29 09:32:30 51°10.884 2°42.871 251.3 13.3 248.8 13.2
2002-11-29 09:32:35 51°10.878 2°42.843 251.8 13.3 249.1 13.3
2002-11-29 09:32:40 51°10.871 2°42.816 251.3 13.3 249.2 13.3
2002-11-29 09:32:46 51°10.863 2°42.783 251.5 13.3 249 13.4
2002-11-29 09:32:50 51°10.858 2°42.762 251.3 13.3 248.8 13.2
2002-11-29 09:32:56 51°10.85 2°42.729 250.8 13.2 248.7 13.3
2002-11-29 09:33:00 51°10.845 2°42.707 251.3 13.3 248.8 13.3
2002-11-29 09:33:06 51°10.837 2°42.675 251.5 13.3 248.9 13.2
2002-11-29 09:33:10 51°10.832 2°42.653 251.7 13.3 249.2 13
2002-11-29 09:33:15 51°10.825 2°42.626 251.2 13.2 248.9 13.2
2002-11-29 09:33:20 51°10.818 2°42.598 251.2 13.3 248.8 13.2
2002-11-29 09:33:26 51°10.81 2°42.566 251.2 13.3 248.7 12.9
2002-11-29 09:33:30 51°10.805 2°42.544 251.5 13.3 249.1 13.2
2002-11-29 09:33:36 51°10.797 2°42.511 251.8 13.2 249.3 13.3
2002-11-29 09:33:40 51°10.792 2°42.489 251.5 13.2 249.3 13.3
2002-11-29 09:33:45 51°10.785 2°42.462 251.2 13.2 249.1 13.2
2002-11-29 09:33:51 51°10.777 2°42.429 250.8 13.3 248.6 13.3
2002-11-29 09:33:56 51°10.77 2°42.402 251.5 13.2 248.8 13.2
2002-11-29 09:34:00 51°10.765 2°42.38 251.8 13.3 249.2 12.9
2002-11-29 09:34:04 51°10.76 2°42.358 252.3 13.3 249.7 13.2
2002-11-29 09:34:11 51°10.751 2°42.32 252.2 13.2 249.8 13.1
2002-11-29 09:34:15 51°10.746 2°42.298 251.3 13.2 249.4 13.2
2002-11-29 09:34:20 51°10.739 2°42.27 251.3 13.3 249 13.3
2002-11-29 09:34:26 51°10.731 2°42.238 251.2 13.2 249 13
2002-11-29 09:34:30 51°10.726 2°42.216 250.8 13.2 248.6 13.2
2002-11-29 09:34:36 51°10.718 2°42.183 251 13.2 248.6 12.9
2002-11-29 09:34:40 51°10.713 2°42.161 251.3 13.3 248.8 13
2002-11-29 09:34:46 51°10.704 2°42.128 251.7 13.3 249 13.3
2002-11-29 09:34:50 51°10.699 2°42.106 251.8 13.3 249.3 13.1
2002-11-29 09:34:55 51°10.692 2°42.079 251.7 13.2 249.3 12.5
2002-11-29 09:35:00 51°10.686 2°42.052 252 13.3 249.5 13.2
2002-11-29 09:35:06 51°10.678 2°42.019 252 13.2 249.7 13.1
2002-11-29 09:35:10 51°10.673 2°41.997 252 13.2 249.7 13
2002-11-29 09:35:16 51°10.666 2°41.964 252.3 13.2 249.9 13.2
2002-11-29 09:35:20 51°10.661 2°41.942 252.5 13.2 250.2 13.2
2002-11-29 09:35:24 51°10.656 2°41.92 252.5 13.2 250.1 13.1
2002-11-29 09:35:31 51°10.647 2°41.881 251.8 13.2 249.9 13.1
2002-11-29 09:35:36 51°10.64 2°41.854 251.3 13.3 249.2 12.9
2002-11-29 09:35:40 51°10.635 2°41.832 251.2 13.2 248.9 13.1
2002-11-29 09:35:46 51°10.627 2°41.8 250.7 13.2 248.3 13.2
2002-11-29 09:35:50 51°10.621 2°41.778 250.3 13.2 248.2 12.7
2002-11-29 09:35:56 51°10.613 2°41.746 250.2 13.2 248 13.1
2002-11-29 09:36:00 51°10.608 2°41.725 250.8 13.2 248.3 12.7
2002-11-29 09:36:06 51°10.6 2°41.692 250.8 13.1 248.6 13
2002-11-29 09:36:10 51°10.595 2°41.671 250.8 13.1 248.8 13.2
2002-11-29 09:36:16 51°10.587 2°41.638 251 13.1 248.7 13.2
2002-11-29 09:36:20 51°10.581 2°41.617 251 13.1 248.7 13.1
2002-11-29 09:36:24 51°10.576 2°41.595 251.2 13.1 249 13.1
2002-11-29 09:36:30 51°10.568 2°41.563 251.3 13.1 249.1 12.8
2002-11-29 09:36:36 51°10.56 2°41.53 251.2 13.1 249 13
2002-11-29 09:36:40 51°10.555 2°41.509 251 13.1 249 12.8
2002-11-29 09:36:46 51°10.547 2°41.476 251.2 13.1 248.9 13.1
2002-11-29 09:36:50 51°10.542 2°41.455 251.3 13.1 249.2 13.1
2002-11-29 09:36:55 51°10.536 2°41.428 251.5 13.2 249.3 13.1
2002-11-29 09:37:00 51°10.53 2°41.401 251.5 13.2 249.2 13
2002-11-29 09:37:06 51°10.522 2°41.368 251.3 13.1 249.1 13.2
2002-11-29 09:37:10 51°10.517 2°41.346 251.3 13.2 249.2 13.1
2002-11-29 09:37:16 51°10.509 2°41.314 251.8 13.2 249.4 12.8
2002-11-29 09:37:20 51°10.504 2°41.292 251.8 13.2 249.6 13.1
2002-11-29 09:37:26 51°10.497 2°41.259 251.7 13.2 249.8 12.7
2002-11-29 09:37:31 51°10.491 2°41.231 251.8 13.2 249.6 13.1
2002-11-29 09:37:36 51°10.484 2°41.204 251.8 13.2 249.5 13.1
2002-11-29 09:37:40 51°10.479 2°41.182 251.7 13.2 249.4 12.8
2002-11-29 09:37:46 51°10.471 2°41.15 251.7 13.2 249.6 12.8
2002-11-29 09:37:50 51°10.466 2°41.128 251.5 13.2 249.3 12.9
2002-11-29 09:37:56 51°10.458 2°41.095 251.7 13.2 249.3 12.8
2002-11-29 09:38:00 51°10.453 2°41.073 251.5 13.2 249.3 13.3
2002-11-29 09:38:04 51°10.448 2°41.052 251.2 13.2 249.3 13.1
2002-11-29 09:38:10 51°10.44 2°41.019 250.8 13.2 249 13.3
2002-11-29 09:38:15 51°10.434 2°40.992 251 13.2 248.8 13.2
2002-11-29 09:38:20 51°10.427 2°40.964 251.3 13.2 249 12.5
2002-11-29 09:38:26 51°10.419 2°40.932 251.5 13.2 249.4 13.1
2002-11-29 09:38:30 51°10.414 2°40.91 251.7 13.2 249.4 13.2
2002-11-29 09:38:35 51°10.408 2°40.882 251.7 13.2 249.4 13.2
2002-11-29 09:38:40 51°10.401 2°40.855 251.3 13.2 249.4 13.2
2002-11-29 09:38:46 51°10.393 2°40.823 251 13.2 249.1 13
2002-11-29 09:38:51 51°10.387 2°40.796 250.8 13.2 248.9 13.2
2002-11-29 09:38:56 51°10.38 2°40.768 251 13.2 248.9 13
2002-11-29 09:39:00 51°10.375 2°40.746 251.3 13.2 249 12.7
2002-11-29 09:39:06 51°10.368 2°40.713 251.7 13.3 249.4 13.2
2002-11-29 09:39:11 51°10.362 2°40.685 251.7 13.2 249.7 13.2
2002-11-29 09:39:16 51°10.355 2°40.658 251.7 13.2 249.6 12.9
2002-11-29 09:39:20 51°10.35 2°40.636 251.5 13.2 249.7 13.3
2002-11-29 09:39:26 51°10.343 2°40.603 251.5 13.2 249.6 12.8
2002-11-29 09:39:30 51°10.337 2°40.582 251 13.2 249.2 13.2
2002-11-29 09:39:35 51°10.331 2°40.554 251.3 13.3 249.1 13.3
2002-11-29 09:39:40 51°10.324 2°40.527 251.3 13.3 249.1 13.1
2002-11-29 09:39:46 51°10.317 2°40.494 251.5 13.2 249.5 12.8
2002-11-29 09:39:51 51°10.31 2°40.467 251.8 13.2 249.8 12.7
2002-11-29 09:39:56 51°10.304 2°40.44 251.5 13.2 249.6 13.3
2002-11-29 09:40:00 51°10.298 2°40.418 251.3 13.3 249.3 13.3
2002-11-29 09:40:06 51°10.291 2°40.385 251.3 13.2 249.4 12.8
2002-11-29 09:40:10 51°10.286 2°40.363 251 13.2 249.3 12.9
2002-11-29 09:40:16 51°10.278 2°40.33 250.8 13.3 249.1 13.3
2002-11-29 09:40:19 51°10.274 2°40.314 251.2 13.3 249.3 13.4
2002-11-29 09:40:26 51°10.265 2°40.275 251.5 13.3 249.6 13.3
2002-11-29 09:40:31 51°10.258 2°40.248 251.8 13.3 249.8 13.4
2002-11-29 09:40:35 51°10.253 2°40.226 251.8 13.3 249.7 13.3
2002-11-29 09:40:40 51°10.247 2°40.199 251.3 13.3 249.4 13.1
2002-11-29 09:40:46 51°10.239 2°40.166 251.3 13.3 249.3 13.4
2002-11-29 09:40:50 51°10.234 2°40.144 251.5 13.3 249.5 12.9
2002-11-29 09:40:55 51°10.228 2°40.117 251.7 13.3 249.5 13.4
2002-11-29 09:41:00 51°10.222 2°40.088 251.7 13.3 249.8 13.2
2002-11-29 09:41:06 51°10.214 2°40.055 251.7 13.3 249.8 13.4
2002-11-29 09:41:11 51°10.208 2°40.027 251.7 13.3 249.8 13.2
2002-11-29 09:41:15 51°10.203 2°40.005 251.7 13.3 249.8 13.5
2002-11-29 09:41:20 51°10.196 2°39.977 251.7 13.3 249.8 13.6
2002-11-29 09:41:26 51°10.188 2°39.944 251.8 13.3 249.8 13.5
2002-11-29 09:41:30 51°10.184 2°39.922 251.8 13.3 249.7 13.5
2002-11-29 09:41:36 51°10.176 2°39.889 251.8 13.3 249.8 13.6
2002-11-29 09:41:40 51°10.171 2°39.867 251.5 13.3 249.5 13.6
2002-11-29 09:41:45 51°10.165 2°39.839 251.3 13.3 249.6 13.3
2002-11-29 09:41:50 51°10.158 2°39.811 250.8 13.3 249.3 13.5
2002-11-29 09:41:55 51°10.152 2°39.784 251 13.3 249.2 13.6
2002-11-29 09:42:00 51°10.145 2°39.757 251.3 13.3 249.1 13.6
2002-11-29 09:42:04 51°10.139 2°39.735 252 13.3 250 13.1
2002-11-29 09:42:11 51°10.13 2°39.696 251.8 13.3 250.1 13.6
2002-11-29 09:42:16 51°10.124 2°39.669 252 13.3 250.1 13.2
2002-11-29 09:42:19 51°10.121 2°39.653 251.8 13.3 249.9 13.7
2002-11-29 09:42:26 51°10.112 2°39.615 251.7 13.3 249.8 13.3
2002-11-29 09:42:30 51°10.107 2°39.593 251.3 13.3 249.5 13.5
2002-11-29 09:42:35 51°10.1 2°39.565 251.3 13.3 249.3 13.3
2002-11-29 09:42:40 51°10.093 2°39.537 251.2 13.4 249.2 13.7
2002-11-29 09:42:46 51°10.085 2°39.504 251.2 13.4 249.4 13
2002-11-29 09:42:50 51°10.08 2°39.482 251.2 13.4 249.5 13.5
2002-11-29 09:42:55 51°10.073 2°39.454 251.5 13.4 249.5 13.3
2002-11-29 09:43:00 51°10.066 2°39.427 251.3 13.4 249.4 13.4
2002-11-29 09:43:06 51°10.059 2°39.394 251.2 13.4 249.2 13.7
2002-11-29 09:43:10 51°10.054 2°39.372 251.3 13.4 249.1 13
2002-11-29 09:43:15 51°10.047 2°39.345 250.3 13.3 248.8 13.3
2002-11-29 09:43:20 51°10.039 2°39.318 246.3 13.3 246.7 13.9
2002-11-29 09:43:26 51°10.028 2°39.288 243.8 13.2 242.5 13.8
2002-11-29 09:43:30 51°10.021 2°39.268 241.8 13.2 240.7 13.6
2002-11-29 09:43:36 51°10.009 2°39.238 240.5 13.2 238.8 13.8
2002-11-29 09:43:40 51°10.002 2°39.218 240.7 13.3 238.9 13.8
2002-11-29 09:43:46 51°9.99 2°39.188 240 13.3 238.1 13.8
2002-11-29 09:43:50 51°9.983 2°39.168 241.2 13.3 239 13.7
2002-11-29 09:43:56 51°9.971 2°39.138 241.8 13.3 239.5 13.5
2002-11-29 09:44:00 51°9.964 2°39.117 242.7 13.3 240.5 13.6
2002-11-29 09:44:06 51°9.954 2°39.086 243.3 13.3 241.1 13.4
2002-11-29 09:44:10 51°9.946 2°39.065 243.5 13.4 241.8 13.7
2002-11-29 09:44:16 51°9.936 2°39.034 244.8 13.4 242.6 13.7
2002-11-29 09:44:20 51°9.93 2°39.012 246.2 13.4 243.7 13.6
2002-11-29 09:44:26 51°9.921 2°38.98 246.8 13.4 244.7 13.8
2002-11-29 09:44:30 51°9.915 2°38.959 247.3 13.4 245.3 13.5
2002-11-29 09:44:36 51°9.906 2°38.927 247.8 13.4 246 13.6
2002-11-29 09:44:40 51°9.9 2°38.905 248.3 13.4 246.7 13.8
2002-11-29 09:44:44 51°9.894 2°38.883 249 13.4 246.9 13.7
2002-11-29 09:44:51 51°9.885 2°38.845 249.8 13.4 248 13.9
2002-11-29 09:44:55 51°9.879 2°38.823 249.8 13.4 247.9 13.4
2002-11-29 09:45:00 51°9.873 2°38.796 250.7 13.4 248.4 13.7
2002-11-29 09:45:06 51°9.864 2°38.763 250.5 13.4 248.6 14
2002-11-29 09:45:11 51°9.858 2°38.735 250.2 13.4 248.5 13.5
2002-11-29 09:45:15 51°9.852 2°38.713 250.2 13.4 248 13.4
2002-11-29 09:45:20 51°9.846 2°38.686 250.3 13.4 248 13.8
2002-11-29 09:45:24 51°9.84 2°38.664 250.5 13.4 248.4 14
2002-11-29 09:45:30 51°9.832 2°38.631 250.3 13.4 248.4 13.9
2002-11-29 09:45:36 51°9.824 2°38.598 250 13.4 248.1 13.9
2002-11-29 09:45:40 51°9.818 2°38.576 250.2 13.4 248.1 14
2002-11-29 09:45:46 51°9.81 2°38.544 250 13.3 248.1 14
2002-11-29 09:45:51 51°9.803 2°38.517 250.3 13.4 248 13.7
2002-11-29 09:45:56 51°9.796 2°38.489 250.5 13.4 248.1 14
2002-11-29 09:46:00 51°9.791 2°38.467 251 13.4 248.6 14
2002-11-29 09:46:04 51°9.785 2°38.445 250.8 13.3 248.8 14.1
2002-11-29 09:46:10 51°9.777 2°38.412 250.5 13.3 248.7 13.9
2002-11-29 09:46:16 51°9.769 2°38.38 250.2 13.3 248.5 14.3
2002-11-29 09:46:20 51°9.764 2°38.358 250.3 13.3 248.8 14.3
2002-11-29 09:46:26 51°9.756 2°38.325 250.3 13.3 248.6 13.9
2002-11-29 09:46:30 51°9.75 2°38.303 250.5 13.4 248.7 14.3
2002-11-29 09:46:35 51°9.744 2°38.276 250.5 13.3 248.8 13.8
2002-11-29 09:46:41 51°9.736 2°38.243 250.2 13.3 248.7 14.5
2002-11-29 09:46:46 51°9.729 2°38.216 249.8 13.3 248.5 14
2002-11-29 09:46:50 51°9.723 2°38.194 250.2 13.3 248.4 14.5
2002-11-29 09:46:55 51°9.717 2°38.166 250.8 13.3 248.8 14.5
2002-11-29 09:47:00 51°9.71 2°38.139 251.5 13.3 249.7 14.1
2002-11-29 09:47:06 51°9.702 2°38.106 251.2 13.3 249.5 14
2002-11-29 09:47:10 51°9.698 2°38.084 251 13.3 249.5 14.3
2002-11-29 09:47:16 51°9.69 2°38.051 251 13.3 249.5 14.3
2002-11-29 09:47:20 51°9.684 2°38.029 251.2 13.3 249.5 13.7
2002-11-29 09:47:24 51°9.679 2°38.007 251.7 13.3 249.7 14.5
2002-11-29 09:47:30 51°9.672 2°37.974 252.3 13.3 250.4 14.7
2002-11-29 09:47:35 51°9.666 2°37.946 252.8 13.3 251.1 14.3
2002-11-29 09:47:40 51°9.66 2°37.918 252.5 13.3 251 14.6
2002-11-29 09:47:46 51°9.653 2°37.885 252.2 13.3 250.6 14.8
2002-11-29 09:47:50 51°9.648 2°37.862 251.8 13.3 250.1 14.8
2002-11-29 09:47:55 51°9.642 2°37.835 251.7 13.3 250.1 14.9
2002-11-29 09:48:00 51°9.636 2°37.807 252 13.3 250.3 14.6
2002-11-29 09:48:06 51°9.628 2°37.774 252.5 13.3 250.4 14.6
2002-11-29 09:48:11 51°9.622 2°37.746 252.7 13.3 251 15
2002-11-29 09:48:16 51°9.616 2°37.719 252.7 13.3 250.9 15.1
2002-11-29 09:48:20 51°9.611 2°37.696 252.5 13.4 250.7 15
2002-11-29 09:48:26 51°9.604 2°37.663 252.5 13.3 250.7 -999
2002-11-29 09:48:30 51°9.599 2°37.641 252.3 13.3 250.6 15.2
2002-11-29 09:48:36 51°9.591 2°37.608 252 13.3 250.2 15.1
2002-11-29 09:48:40 51°9.586 2°37.586 252 13.3 250.1 14.8
2002-11-29 09:48:46 51°9.579 2°37.553 252 13.3 250.3 15.1
2002-11-29 09:48:50 51°9.574 2°37.531 252.3 13.3 250.6 15.1
2002-11-29 09:48:56 51°9.567 2°37.497 252.8 13.3 251.2 15.4
2002-11-29 09:49:00 51°9.562 2°37.475 252.5 13.3 251.1 15.5
2002-11-29 09:49:06 51°9.554 2°37.442 252.5 13.3 251 15.6
2002-11-29 09:49:11 51°9.548 2°37.414 252.5 13.3 250.8 15.5
2002-11-29 09:49:16 51°9.542 2°37.386 252 13.3 250.7 15.7
2002-11-29 09:49:20 51°9.537 2°37.364 251.7 13.3 250.2 15.8
2002-11-29 09:49:25 51°9.531 2°37.337 252.2 13.3 250.2 15.8
2002-11-29 09:49:30 51°9.525 2°37.31 252.2 13.3 250.3 15.9
2002-11-29 09:49:36 51°9.518 2°37.277 252 13.3 250.6 15.8
2002-11-29 09:49:40 51°9.513 2°37.254 252.2 13.3 250.7 15.9
2002-11-29 09:49:46 51°9.505 2°37.221 252.3 13.3 250.8 16
2002-11-29 09:49:50 51°9.5 2°37.199 252.5 13.3 250.9 15.6
2002-11-29 09:49:56 51°9.494 2°37.166 252.7 13.3 251.2 16.2
2002-11-29 09:50:00 51°9.489 2°37.143 253 13.3 251.1 16.1
2002-11-29 09:50:04 51°9.484 2°37.121 252.5 13.3 250.9 15.8
2002-11-29 09:50:11 51°9.475 2°37.082 252.3 13.3 250.5 16.3
2002-11-29 09:50:15 51°9.47 2°37.06 252.3 13.3 250.5 16.2
2002-11-29 09:50:20 51°9.464 2°37.033 252.5 13.3 250.6 16.4
2002-11-29 09:50:26 51°9.456 2°36.999 252.5 13.3 250.8 16.2
2002-11-29 09:50:31 51°9.45 2°36.972 252.7 13.3 250.8 16.5
2002-11-29 09:50:36 51°9.444 2°36.944 252.8 13.3 250.8 16.3
2002-11-29 09:50:40 51°9.44 2°36.921 252.8 13.3 251.2 16.1
2002-11-29 09:50:46 51°9.433 2°36.888 252.8 13.3 251.1 16.3
2002-11-29 09:50:51 51°9.427 2°36.861 252.8 13.3 251.2 16.4
2002-11-29 09:50:56 51°9.421 2°36.835 252.8 12.9 251.2 16.8
2002-11-29 09:51:00 51°9.417 2°36.815 252.7 12.1 251.5 16.2
2002-11-29 09:51:04 51°9.414 2°36.797 252.8 11.2 251.7 16.8
2002-11-29 09:51:11 51°9.407 2°36.768 252.3 10.3 251.3 16.6
2002-11-29 09:51:15 51°9.404 2°36.752 251.3 9.6 250.6 16.8
2002-11-29 09:51:20 51°9.4 2°36.734 249.8 8.9 249.7 16.9
2002-11-29 09:51:26 51°9.394 2°36.714 247.8 8.7 249.2 16.9
2002-11-29 09:51:31 51°9.389 2°36.699 245.7 7.8 245.8 17
2002-11-29 09:51:36 51°9.385 2°36.685 243.3 7.3 243.9 16.9
2002-11-29 09:51:40 51°9.381 2°36.675 241 6.9 241.8 16.6
2002-11-29 09:51:46 51°9.375 2°36.661 239 6.5 239.7 16.8
2002-11-29 09:51:51 51°9.371 2°36.649 237.2 6.2 237.7 17
2002-11-29 09:51:56 51°9.366 2°36.639 235.5 5.8 236.2 16.9
2002-11-29 09:52:00 51°9.363 2°36.631 233.8 5.5 235.1 16.9
2002-11-29 09:52:04 51°9.359 2°36.624 232.2 5.3 234.1 16.9
2002-11-29 09:52:11 51°9.353 2°36.612 231 5 232.6 16.9
2002-11-29 09:52:16 51°9.349 2°36.604 229.8 4.8 230.8 16.7
2002-11-29 09:52:20 51°9.346 2°36.599 228.5 4.6 229.6 16.7
2002-11-29 09:52:24 51°9.342 2°36.593 227 4.3 228.1 16.9
2002-11-29 09:52:30 51°9.338 2°36.585 225.3 4.1 226.5 16.9
2002-11-29 09:52:35 51°9.334 2°36.579 223.3 3.9 224.8 16.7
2002-11-29 09:52:40 51°9.33 2°36.574 221.3 3.7 222.7 17
2002-11-29 09:52:46 51°9.325 2°36.568 219.7 3.6 220.5 16.8
2002-11-29 09:52:51 51°9.322 2°36.564 218 3.4 218.4 16.7
2002-11-29 09:52:56 51°9.318 2°36.56 216.3 3.3 217.3 16.8
2002-11-29 09:53:00 51°9.315 2°36.557 214.8 3.1 215.3 16.6
2002-11-29 09:53:06 51°9.311 2°36.552 213.5 3 214.4 16.7
2002-11-29 09:53:10 51°9.308 2°36.549 212.3 2.9 212.9 16.9
2002-11-29 09:53:16 51°9.304 2°36.546 211.3 2.8 211.5 16.9
2002-11-29 09:53:20 51°9.302 2°36.543 210.2 2.7 209.9 16.9
2002-11-29 09:53:24 51°9.299 2°36.541 209.2 2.6 208.5 16.6
2002-11-29 09:53:30 51°9.296 2°36.538 208.2 2.5 208.7 16.8
2002-11-29 09:53:36 51°9.292 2°36.535 207.3 2.4 207.5 16.7
2002-11-29 09:53:40 51°9.29 2°36.534 206.5 2.3 206.8 16.6
2002-11-29 09:53:46 51°9.287 2°36.531 205.8 2.2 206.4 16.7
2002-11-29 09:53:50 51°9.285 2°36.529 205.3 2.1 206.3 16.6
2002-11-29 09:53:55 51°9.282 2°36.527 204.8 2.1 204.6 16.3
2002-11-29 09:54:00 51°9.28 2°36.526 204.5 2.1 202.5 16.4
2002-11-29 09:54:04 51°9.278 2°36.524 204.2 2 202.3 16.6
2002-11-29 09:54:10 51°9.275 2°36.522 203.7 1.9 202.1 16.2
2002-11-29 09:54:16 51°9.272 2°36.52 203.5 1.9 202.3 15.9
2002-11-29 09:54:20 51°9.27 2°36.519 203.3 1.8 202.7 16.4
2002-11-29 09:54:24 51°9.268 2°36.518 203.2 1.8 202.4 16.5
2002-11-29 09:54:30 51°9.266 2°36.517 202.8 1.8 201.6 16.6
2002-11-29 09:54:35 51°9.264 2°36.515 202.7 1.8 201.2 16.5
2002-11-29 09:54:40 51°9.262 2°36.514 202.7 1.7 200.7 16.2
2002-11-29 09:54:46 51°9.26 2°36.513 202.7 1.7 201.7 16.4
2002-11-29 09:54:50 51°9.259 2°36.512 202.7 1.6 201.4 16.3
2002-11-29 09:54:55 51°9.257 2°36.51 202.8 1.6 202.2 16.4
2002-11-29 09:55:00 51°9.255 2°36.509 203 1.5 203.6 16.3
2002-11-29 09:55:06 51°9.253 2°36.507 203 1.5 204.2 16.3
2002-11-29 09:55:10 51°9.251 2°36.506 203.3 1.4 203.6 16
2002-11-29 09:55:15 51°9.249 2°36.505 203.5 1.4 204.8 16.3
2002-11-29 09:55:20 51°9.247 2°36.504 203.8 1.4 203.1 16.2
2002-11-29 09:55:26 51°9.245 2°36.502 204.2 1.4 205.4 16
2002-11-29 09:55:31 51°9.244 2°36.501 204.5 1.3 206.2 15.8
2002-11-29 09:55:36 51°9.242 2°36.499 205.2 1.3 207.2 16.1
2002-11-29 09:55:40 51°9.241 2°36.498 205.7 1.2 208.4 16.2
2002-11-29 09:55:44 51°9.24 2°36.497 206.3 1.2 212.1 16.1
2002-11-29 09:55:50 51°9.238 2°36.495 206.8 1.2 213.3 15.8
2002-11-29 09:55:56 51°9.237 2°36.494 207.5 1.2 214.6 16
2002-11-29 09:56:00 51°9.235 2°36.492 208.3 1.2 215.5 16.1
2002-11-29 09:56:04 51°9.234 2°36.492 209.2 1.1 215.6 16
2002-11-29 09:56:10 51°9.232 2°36.49 209.8 1.2 216.2 15.8
2002-11-29 09:56:16 51°9.231 2°36.488 210.5 1.2 215.8 15.9
2002-11-29 09:56:20 51°9.23 2°36.486 211.3 1.1 218.9 15.8
2002-11-29 09:56:26 51°9.229 2°36.485 212.2 1.1 221.6 16
2002-11-29 09:56:31 51°9.228 2°36.483 212.8 1.1 225 15.5
2002-11-29 09:56:36 51°9.227 2°36.482 213.5 1.1 225 15.9
2002-11-29 09:56:40 51°9.226 2°36.48 214.3 1 226.5 15.8
2002-11-29 09:56:45 51°9.225 2°36.479 215.2 1 227 15.6
2002-11-29 09:56:50 51°9.224 2°36.477 216 1 228.4 15.6
2002-11-29 09:56:55 51°9.223 2°36.475 216.8 1 229.3 16
2002-11-29 09:57:00 51°9.222 2°36.473 217.7 1 231.6 15.7
2002-11-29 09:57:06 51°9.221 2°36.471 218.3 1 232.2 15.8
2002-11-29 09:57:11 51°9.221 2°36.469 219.2 1 235.5 15.8
2002-11-29 09:57:15 51°9.22 2°36.468 220 1 238.6 15.4
2002-11-29 09:57:20 51°9.219 2°36.466 220.8 1 238.9 15.9
2002-11-29 09:57:24 51°9.219 2°36.465 221.5 1 240.5 15.8
2002-11-29 09:57:30 51°9.218 2°36.462 222.3 1 242.3 15.9
2002-11-29 09:57:35 51°9.217 2°36.46 223.2 1 243.3 15.3
2002-11-29 09:57:40 51°9.216 2°36.458 223.7 1 243.2 15.8
2002-11-29 09:57:44 51°9.216 2°36.456 224.2 1 246.4 15.9
2002-11-29 09:57:51 51°9.216 2°36.454 224.7 1 248.6 15.8
2002-11-29 09:57:56 51°9.215 2°36.452 225.5 1 249 15.8
2002-11-29 09:58:00 51°9.215 2°36.45 226 1 249.1 15.5
2002-11-29 09:58:06 51°9.214 2°36.448 226.5 1 248.1 15.8
2002-11-29 09:58:10 51°9.214 2°36.447 227 0.9 249.2 15.9
2002-11-29 09:58:15 51°9.214 2°36.444 227.7 0.9 254.2 15.3
2002-11-29 09:58:20 51°9.213 2°36.443 228 1 254.5 15.5
2002-11-29 09:58:26 51°9.213 2°36.44 228.3 1 253.8 15.9
2002-11-29 09:58:31 51°9.212 2°36.438 228.8 0.9 254.3 15.9
2002-11-29 09:58:36 51°9.212 2°36.436 229.3 1 256.1 16
2002-11-29 09:58:40 51°9.212 2°36.434 229.7 1 257.3 16
2002-11-29 09:58:46 51°9.211 2°36.432 230 1 259 16
2002-11-29 09:58:50 51°9.211 2°36.43 230.2 1 260 16.1
2002-11-29 09:58:56 51°9.211 2°36.428 230.5 1 259.9 16.1
2002-11-29 09:59:00 51°9.21 2°36.426 230.8 1 256.6 15.6
2002-11-29 09:59:06 51°9.21 2°36.424 231.2 1 251.5 15.8
2002-11-29 09:59:10 51°9.209 2°36.422 231.3 1 252.1 15.9
2002-11-29 09:59:15 51°9.209 2°36.42 231.7 1 254.6 16
2002-11-29 09:59:20 51°9.209 2°36.418 232.2 1 257 15.9
2002-11-29 09:59:26 51°9.208 2°36.415 232.5 1 257.1 15.7
2002-11-29 09:59:31 51°9.208 2°36.413 232.8 1 256.7 15.9
2002-11-29 09:59:35 51°9.208 2°36.411 233.2 1 257.2 15.9
2002-11-29 09:59:40 51°9.207 2°36.409 233.7 1 257.9 15.9
2002-11-29 09:59:46 51°9.207 2°36.407 234 1 256.7 15.7